{"data":{"norad_id":64238,"epoch":"2026-09-19T22:55:20.045568Z","epoch_age_seconds":184690,"freshness":"STALE","line1":"1 64238U 25119F   26262.95509312  .00163420  00000+0  12490-2 0  9996","line2":"2 64238  42.9979 118.5052 0002826 260.8737  99.1811 15.70897444 75794","mean_motion":15.70897444,"eccentricity":0.0002826,"inclination_deg":42.9979,"raan_deg":118.5052,"arg_perigee_deg":260.8737,"mean_anomaly_deg":99.1811,"bstar":0.001249,"rev_number":7579,"period_min":91.667346299406,"perigee_km":354.42772024586,"apogee_km":358.23404149213,"semimajor_km":6734.467880869,"source":"CELESTRAK","updated_at":"2026-09-21T09:00:35.277039Z"}}